GW4127 Weather Reports


time (UTC)temp
C
wind
direction
speed
KPH
gust
KPH
rain 1hr
cm
rain 24hr
cm
rain mn
cm
humidity
%
barometer
mb
20260504090117 14 301 1.6 9.7 0.00 0.00 0.00 84 1017.5
20260504081525 13 301 4.8 8.0 0.00 0.00 0.00 89 1017.7
20260504044614 9 301 0.0 3.2 0.00 0.00 0.00 98 1017.4
20260504043051 9 301 0.0 0.0 0.00 0.00 0.00 98 1017.5
20260504041538 9 301 0.0 0.0 0.00 0.00 0.00 98 1017.7
20260504040027 10 301 0.0 6.4 0.00 0.00 0.00 98 1017.8
20260504034531 10 301 0.0 4.8 0.00 0.00 0.00 98 1017.9
20260504033036 10 301 1.6 8.0 0.00 0.00 0.00 98 1017.9
20260504031525 10 301 1.6 8.0 0.00 0.00 0.00 98 1017.9
20260504030020 10 301 1.6 8.0 0.00 0.00 0.00 98 1017.9
20260504024516 10 301 4.8 16.1 0.00 0.00 0.00 98 1017.7
20260504023006 10 301 8.0 14.5 0.00 0.00 0.00 98 1017.5
20260504021503 9 301 8.0 14.5 0.00 0.00 0.00 98 1017.5
20260504020044 9 301 6.4 17.7 0.00 0.00 0.00 98 1017.6
20260504014543 10 301 4.8 14.5 0.00 0.00 0.00 98 1017.8
20260504013020 10 301 4.8 11.3 0.00 0.00 0.00 98 1018.1
20260504011519 10 301 3.2 8.0 0.00 0.00 0.00 98 1018.2
20260504010009 9 301 0.0 4.8 0.00 0.00 0.00 98 1018.4
20260504004555 9 301 0.0 6.4 0.00 0.00 0.00 98 1018.4
20260504003043 9 301 4.8 14.5 0.00 0.00 0.00 98 1018.6
20260504001540 9 301 3.2 11.3 0.00 0.00 0.00 98 1018.4
20260504000025 9 301 1.6 9.7 0.00 0.00 0.00 98 1018.6
20260503234511 9 301 6.4 11.3 0.00 0.00 0.00 98 1018.5
20260503233002 9 301 0.0 6.4 0.00 0.00 0.00 98 1018.8
20260503231556 9 301 0.0 6.4 0.00 0.00 0.00 98 1018.8
20260503230055 9 301 4.8 12.9 0.00 0.00 0.00 98 1018.7
20260503224535 9 301 6.4 12.9 0.00 0.00 0.00 97 1018.7
20260503223037 9 301 6.4 14.5 0.00 0.00 0.00 97 1018.7
20260503221532 9 301 4.8 16.1 0.00 0.00 0.00 97 1018.7
20260503220024 9 301 6.4 17.7 0.00 0.00 0.00 97 1018.6
20260503214515 9 301 6.4 14.5 0.00 0.00 0.00 97 1018.7
20260503213013 9 301 4.8 12.9 0.00 0.00 0.00 96 1018.7
20260503211503 9 301 4.8 12.9 0.00 0.00 0.00 96 1018.7
20260503210058 9 301 0.0 8.0 0.00 0.00 0.00 97 1018.8
20260503204518 9 301 3.2 9.7 0.00 0.00 0.00 96 1019.0
20260503203059 9 301 0.0 6.4 0.00 0.00 0.00 96 1019.1
20260503201559 9 301 1.6 8.0 0.00 0.00 0.00 96 1019.0
20260503201503 9 301 0.0 8.0 0.00 0.00 0.00 96 1019.0
20260503200003 9 301 1.6 8.0 0.00 0.00 0.00 96 1019.2
20260503194508 9 301 1.6 9.7 0.00 0.00 0.00 96 1018.9
20260503193056 9 301 3.2 11.3 0.00 0.00 0.00 96 1018.9
20260503191551 10 301 3.2 14.5 0.00 0.00 0.00 96 1018.9
20260503190046 10 301 4.8 11.3 0.00 0.00 0.00 96 1018.7
20260503184541 10 301 3.2 11.3 0.00 0.00 0.00 96 1018.7
20260503183033 10 301 1.6 8.0 0.00 0.00 0.00 96 1018.7
20260503181523 10 301 4.8 12.9 0.00 0.00 0.00 95 1018.6
20260503180013 10 301 4.8 12.9 0.00 0.00 0.00 95 1018.6
20260503174509 11 301 3.2 11.3 0.00 0.00 0.00 95 1018.8
20260503173008 11 301 1.6 12.9 0.00 0.00 0.00 94 1018.7
20260503171547 11 301 0.0 11.3 0.00 0.00 0.00 93 1018.8